HB9EYW-6 Weather Reports


time (UTC)temp
F
wind
direction
speed
knots
gust
knots
rain 1hr
in
rain 24hr
in
rain mn
in
humidity
%
barometer
mb
20260507164004 64 256 0.0 1.7 0.00 0.04 0.02 37
20260507163504 65 266 0.0 2.6 0.00 0.04 0.02 35
20260507163004 66 250 0.0 4.3 0.00 0.05 0.02 33
20260507162504 67 236 0.0 4.3 0.00 0.05 0.02 31
20260507162004 69 283 1.7 3.5 0.00 0.05 0.02 31
20260507161504 69 346 0.0 3.5 0.00 0.05 0.02 34
20260507161004 67 33 0.0 1.7 0.00 0.05 0.02 36
20260507160504 65 54 0.0 1.7 0.00 0.05 0.02 41
20260507160004 65 227 0.0 1.7 0.00 0.05 0.02 41
20260507155504 64 248 0.0 2.6 0.00 0.05 0.02 41
20260507155004 63 265 0.0 2.6 0.00 0.05 0.02 41
20260507154504 64 255 0.0 2.6 0.00 0.05 0.02 40
20260507154004 64 255 0.9 1.7 0.00 0.05 0.02 40
20260507153504 64 274 0.0 1.7 0.00 0.05 0.02 41
20260507153004 64 290 0.0 2.6 0.00 0.05 0.02 39
20260507152504 64 98 0.0 2.6 0.00 0.05 0.02 39
20260507152004 64 265 0.0 1.7 0.00 0.05 0.02 39
20260507151504 65 276 0.0 1.7 0.00 0.05 0.02 38
20260507151004 65 274 0.0 1.7 0.00 0.05 0.02 39
20260507150504 65 271 0.9 2.6 0.00 0.05 0.02 38
20260507150005 65 272 0.9 2.6 0.00 0.05 0.02 38
20260507145504 65 357 0.0 1.7 0.00 0.05 0.02 39
20260507145004 64 355 0.0 1.7 0.00 0.05 0.02 41
20260507144504 64 246 0.0 1.7 0.00 0.05 0.02 42
20260507144004 64 240 0.0 3.5 0.00 0.05 0.02 40
20260507143504 64 260 0.0 3.5 0.00 0.05 0.02 40
20260507143004 64 256 0.9 3.5 0.00 0.05 0.02 36
20260507142504 65 254 0.0 3.5 0.00 0.05 0.02 35
20260507142004 65 269 0.9 5.2 0.00 0.05 0.02 34
20260507141504 66 317 0.0 5.2 0.00 0.05 0.02 33
20260507141004 67 213 0.9 5.2 0.00 0.05 0.02 26
20260507140504 66 202 0.0 2.6 0.00 0.05 0.02 30
20260507140004 66 257 0.0 5.2 0.00 0.05 0.02 30
20260507135504 65 243 0.0 5.2 0.00 0.05 0.02 29
20260507135004 65 197 1.7 5.2 0.00 0.05 0.02 29
20260507134504 65 203 0.9 3.5 0.00 0.05 0.02 29
20260507134004 66 271 1.7 4.3 0.00 0.05 0.02 28
20260507133504 66 276 0.0 4.3 0.00 0.05 0.02 29
20260507133004 66 240 0.9 4.3 0.00 0.05 0.02 30
20260507132504 66 225 0.0 5.2 0.00 0.05 0.02 32
20260507132004 65 273 1.7 5.2 0.00 0.06 0.02 32
20260507131504 65 277 1.7 5.2 0.00 0.06 0.02 30
20260507131004 67 279 1.7 3.5 0.00 0.06 0.02 28
20260507130504 67 270 1.7 3.5 0.00 0.06 0.02 29
20260507130004 67 278 1.7 5.2 0.00 0.06 0.02 29
20260507125504 66 311 0.9 5.2 0.00 0.06 0.02 28
20260507125004 66 2 0.9 3.5 0.00 0.06 0.02 31
20260507124504 68 357 0.9 2.6 0.00 0.06 0.02 31
20260507124004 69 28 0.9 2.6 0.00 0.06 0.02 33
20260507123504 68 39 0.0 2.6 0.00 0.07 0.02 36
20260507123004 66 5 0.0 2.6 0.00 0.07 0.02 37
20260507122504 65 3 0.9 2.6 0.00 0.07 0.02 37
20260507122004 65 347 0.9 2.6 0.00 0.07 0.02 37
20260507121504 65 297 0.0 6.1 0.00 0.08 0.02 37
20260507121004 64 321 0.9 6.1 0.00 0.08 0.02 36
20260507120504 63 329 0.0 3.5 0.00 0.09 0.02 41
20260507120005 63 300 0.0 3.5 0.00 0.09 0.02 41
20260507115504 62 284 0.0 3.5 0.00 0.09 0.02 42
20260507115004 62 282 0.0 3.5 0.00 0.09 0.02 42
20260507114504 62 268 1.7 3.5 0.00 0.11 0.02 44
20260507114004 62 280 0.0 3.5 0.00 0.11 0.02 44
20260507113504 62 289 0.9 3.5 0.00 0.14 0.02 43
20260507113004 63 299 0.9 3.5 0.00 0.21 0.02 43
20260507112504 63 295 1.7 3.5 0.00 0.24 0.02 43
20260507112004 62 288 0.9 3.5 0.00 0.25 0.02 45
20260507111504 62 281 0.9 3.5 0.00 0.25 0.02 48
20260507111004 61 180 0.0 0.9 0.00 0.26 0.02 48
20260507110504 61 201 0.0 1.7 0.00 0.27 0.02 46
20260507110004 61 245 0.0 2.6 0.00 0.27 0.02 46
20260507105504 62 269 0.0 2.6 0.00 0.27 0.02 47
20260507105004 62 248 0.0 3.5 0.00 0.28 0.02 50
20260507104504 62 245 0.0 3.5 0.00 0.28 0.02 48
20260507104004 62 149 0.9 1.7 0.00 0.30 0.02 51
20260507103504 62 211 0.0 2.6 0.00 0.30 0.02 50
20260507103004 61 259 0.0 3.5 0.00 0.30 0.02 50
20260507102504 61 273 0.0 3.5 0.00 0.31 0.02 50
20260507102006 60 298 0.0 4.3 0.00 0.31 0.02 52
20260507101504 60 301 0.0 4.3 0.00 0.32 0.02 51
20260507101004 60 194 0.0 1.7 0.00 0.32 0.02 55
20260507100504 60 241 0.0 1.7 0.00 0.32 0.02 53
20260507100004 60 289 0.0 1.7 0.00 0.32 0.02 53
20260507095504 60 293 0.0 3.5 0.00 0.32 0.02 53
20260507095004 61 267 0.0 3.5 0.00 0.32 0.02 53
20260507094504 62 254 0.9 3.5 0.00 0.32 0.02 54
20260507094004 62 288 0.9 6.1 0.00 0.32 0.02 55
20260507093504 62 300 1.7 6.1 0.00 0.32 0.02 56
20260507093004 60 327 0.0 2.6 0.00 0.32 0.02 66
20260507092504 59 311 0.9 2.6 0.00 0.32 0.02 69
20260507092004 57 296 0.9 2.6 0.00 0.32 0.02 68
20260507091504 57 292 0.9 1.7 0.00 0.32 0.02 69
20260507091004 56 267 0.0 1.7 0.00 0.32 0.02 70
20260507090504 56 254 0.0 2.6 0.00 0.32 0.02 70
20260507090005 56 250 0.0 2.6 0.00 0.32 0.02 70
20260507085504 56 198 1.7 3.5 0.00 0.32 0.02 70
20260507085004 56 208 0.9 3.5 0.00 0.32 0.02 70
20260507084504 56 238 0.9 3.5 0.00 0.32 0.02 70
20260507084004 57 245 0.9 3.5 0.00 0.32 0.02 72
20260507083504 56 213 0.0 1.7 0.00 0.32 0.02 75
20260507083004 56 222 0.0 2.6 0.00 0.32 0.02 75
20260507082504 55 244 0.0 2.6 0.00 0.32 0.02 75
20260507082004 55 253 1.7 3.5 0.00 0.32 0.02 77
20260507081504 55 270 0.9 3.5 0.00 0.32 0.02 79
20260507081004 54 276 0.9 1.7 0.00 0.32 0.02 82
20260507080504 54 251 0.0 1.7 0.00 0.32 0.02 83
20260507080004 54 187 0.0 2.6 0.00 0.32 0.02 83
20260507075504 53 191 0.0 2.6 0.00 0.32 0.02 84
20260507075004 53 215 0.0 1.7 0.00 0.32 0.02 85
20260507074504 53 174 0.0 1.7 0.00 0.32 0.02 85
20260507074004 53 178 0.0 1.7 0.00 0.32 0.02 85
20260507073504 53 186 0.0 1.7 0.00 0.32 0.02 86
20260507073004 53 173 0.0 1.7 0.00 0.32 0.02 86
20260507072504 52 254 0.0 1.7 0.00 0.32 0.02 86
20260507072004 52 236 0.0 1.7 0.00 0.32 0.02 87
20260507071504 52 134 0.0 1.7 0.00 0.32 0.02 87
20260507071004 52 49 0.0 1.7 0.00 0.32 0.02 87
20260507070504 52 65 0.0 2.6 0.00 0.32 0.02 87
20260507070008 52 132 0.0 2.6 0.00 0.32 0.02 87
20260507065504 52 146 0.9 2.6 0.00 0.32 0.02 87
20260507065004 52 147 0.0 1.7 0.00 0.32 0.02 88
20260507064504 52 135 0.0 1.7 0.00 0.32 0.02 88
20260507064004 52 180 0.0 0.9 0.00 0.32 0.02 88
20260507063504 51 180 0.0 0.9 0.00 0.32 0.02 88
20260507063004 51 0 0.0 0.0 0.00 0.32 0.02 87
20260507062504 51 135 0.0 1.7 0.00 0.32 0.02 87
20260507062004 51 127 0.0 1.7 0.00 0.32 0.02 87
20260507061504 51 121 0.0 1.7 0.00 0.32 0.02 87
20260507061004 51 130 0.0 0.9 0.00 0.32 0.02 87
20260507060504 51 135 0.0 1.7 0.00 0.32 0.02 88
20260507060004 51 130 0.0 1.7 0.00 0.32 0.02 88
20260507055504 51 129 0.0 1.7 0.00 0.32 0.02 88
20260507055004 51 140 0.0 1.7 0.01 0.32 0.02 88
20260507054504 51 153 0.0 1.7 0.01 0.32 0.02 88
20260507054004 51 177 0.0 1.7 0.01 0.32 0.02 88
20260507053504 51 161 0.0 0.9 0.01 0.32 0.02 88
20260507053004 51 154 0.0 0.9 0.01 0.32 0.02 88
20260507052504 51 178 0.0 0.9 0.01 0.32 0.02 88
20260507052004 51 177 0.0 0.9 0.01 0.32 0.02 88
20260507051504 51 142 0.0 1.7 0.01 0.32 0.02 88
20260507051004 51 132 0.0 1.7 0.01 0.32 0.02 88
20260507050504 51 141 0.0 1.7 0.01 0.32 0.02 88
20260507050004 51 136 0.0 1.7 0.01 0.32 0.02 88
20260507045504 51 129 0.9 1.7 0.01 0.32 0.02 88
20260507045004 51 126 0.0 1.7 0.00 0.31 0.01 88
20260507044504 51 128 0.0 1.7 0.00 0.31 0.01 88
20260507044003 51 131 0.0 1.7 0.00 0.31 0.01 88
20260507043504 51 135 0.0 1.7 0.00 0.31 0.01 88
20260507043004 51 224 0.0 1.7 0.00 0.31 0.01 88
20260507042504 51 243 0.0 1.7 0.00 0.31 0.01 88
20260507042004 51 0 0.0 0.0 0.00 0.31 0.01 88
20260507041503 51 280 0.0 0.9 0.00 0.31 0.01 88
20260507041003 51 274 0.0 0.9 0.00 0.31 0.01 88
20260507040504 51 288 0.0 0.9 0.00 0.31 0.01 88
20260507040004 51 291 0.0 1.7 0.00 0.31 0.01 88
20260507035504 51 285 0.0 1.7 0.00 0.31 0.01 89
20260507035004 51 285 0.0 1.7 0.00 0.31 0.01 89
20260507034504 51 271 0.0 1.7 0.00 0.31 0.01 89
20260507034004 50 273 0.0 1.7 0.00 0.31 0.01 88
20260507033503 50 282 0.0 1.7 0.00 0.31 0.01 88
20260507033003 50 266 0.0 1.7 0.00 0.31 0.01 88
20260507032504 50 237 0.0 1.7 0.00 0.31 0.01 88
20260507032003 50 220 0.0 1.7 0.00 0.31 0.01 88
20260507031503 50 204 0.0 1.7 0.00 0.31 0.01 88
20260507031004 50 184 0.0 1.7 0.00 0.31 0.01 88
20260507030503 50 180 0.0 1.7 0.00 0.31 0.01 88
20260507030004 50 227 0.0 1.7 0.00 0.31 0.01 88
20260507025503 50 258 0.0 1.7 0.00 0.31 0.01 88
20260507025003 50 227 0.0 1.7 0.00 0.31 0.01 88
20260507024503 50 233 0.0 1.7 0.00 0.31 0.01 88
20260507024003 50 259 0.0 1.7 0.00 0.31 0.01 88
20260507023503 50 263 0.0 1.7 0.00 0.31 0.01 88
20260507023004 50 247 0.0 0.9 0.00 0.31 0.01 88
20260507022504 50 180 0.0 0.9 0.00 0.31 0.01 88
20260507022003 50 159 0.0 1.7 0.00 0.31 0.01 88
20260507021503 50 145 0.0 1.7 0.00 0.31 0.01 88
20260507021003 50 135 0.0 0.9 0.00 0.31 0.01 88
20260507020503 50 140 0.0 0.9 0.00 0.31 0.01 87
20260507020004 50 162 0.0 0.9 0.00 0.31 0.01 87
20260507015503 50 180 0.0 0.9 0.00 0.31 0.01 87
20260507015004 50 180 0.0 0.9 0.00 0.31 0.01 87
20260507014503 50 150 0.0 0.9 0.00 0.31 0.01 87
20260507014003 50 150 0.0 0.9 0.00 0.31 0.01 87
20260507013504 50 180 0.0 0.9 0.01 0.31 0.01 87
20260507013003 50 0 0.0 0.0 0.01 0.31 0.01 87
20260507012503 50 0 0.0 0.0 0.01 0.31 0.01 87
20260507012003 50 247 0.0 0.9 0.01 0.31 0.01 87
20260507011503 50 215 0.0 0.9 0.01 0.31 0.01 87
20260507011003 50 135 0.0 0.9 0.01 0.31 0.01 86
20260507010503 50 0 0.0 0.0 0.01 0.31 0.01 86
20260507010004 50 0 0.0 0.0 0.01 0.31 0.01 86
20260507005503 50 0 0.0 0.0 0.01 0.31 0.01 86
20260507005003 50 360 0.0 0.9 0.01 0.31 0.01 86
20260507004503 50 360 0.0 0.9 0.01 0.31 0.01 86
20260507004003 50 0 0.0 0.0 0.01 0.31 0.01 86
20260507003503 50 0 0.0 0.0 0.00 0.30 0.00 86
20260507003003 51 135 0.0 0.9 0.00 0.30 0.00 86
20260507002503 50 135 0.0 0.9 0.00 0.30 0.00 86
20260507002003 51 135 0.0 0.9 0.00 0.30 0.00 86
20260507001503 51 135 0.0 0.9 0.00 0.30 0.00 85
20260507001003 51 0 0.0 0.0 0.00 0.30 0.00 85
20260507000503 51 0 0.0 0.0 0.00 0.30 0.00 85
20260507000004 51 0 0.0 0.0 0.00 0.30 0.00 85
20260506235503 51 0 0.0 0.0 0.00 0.30 0.00 85
20260506235003 51 0 0.0 0.0 0.00 0.30 0.00 84
20260506234504 51 0 0.0 0.0 0.00 0.30 0.00 84
20260506234003 51 0 0.0 0.0 0.00 0.30 0.00 84
20260506233503 51 0 0.0 0.0 0.00 0.30 0.00 84
20260506233003 51 0 0.0 0.0 0.00 0.30 0.00 83
20260506232503 51 0 0.0 0.0 0.00 0.30 0.00 83
20260506232003 51 0 0.0 0.0 0.00 0.30 0.00 83
20260506231503 51 0 0.0 0.0 0.00 0.30 0.00 83
20260506231003 51 0 0.0 0.0 0.00 0.30 0.00 82
20260506230503 51 0 0.0 0.0 0.00 0.30 0.00 82
20260506230003 51 0 0.0 0.0 0.00 0.30 0.00 82
20260506225503 51 0 0.0 0.0 0.00 0.30 0.00 81
20260506225003 51 0 0.0 0.0 0.00 0.30 0.00 81
20260506224503 51 135 0.0 1.7 0.00 0.30 0.00 81
20260506224003 51 135 0.0 1.7 0.00 0.30 0.00 80
20260506223503 51 135 0.0 1.7 0.00 0.30 0.00 80
20260506223003 51 135 0.0 1.7 0.00 0.30 0.00 80
20260506222503 51 135 0.0 1.7 0.00 0.30 0.00 79
20260506222003 51 135 0.0 1.7 0.00 0.30 0.00 79
20260506221504 51 135 0.0 0.9 0.00 0.30 0.00 79
20260506221003 51 0 0.0 0.0 0.00 0.30 0.00 79
20260506220503 51 153 0.0 0.9 0.00 0.30 0.00 80
20260506220004 51 136 0.0 1.7 0.00 0.30 0.00 80
20260506215503 51 168 0.0 1.7 0.00 0.30 0.30 81
20260506215004 51 215 0.0 5.2 0.00 0.30 0.30 82
20260506214503 51 201 0.9 5.2 0.00 0.30 0.30 83
20260506214003 51 179 1.7 5.2 0.00 0.30 0.30 83
20260506213503 51 185 0.0 2.6 0.00 0.30 0.30 84
20260506213003 51 194 0.9 3.5 0.00 0.30 0.30 84
20260506212503 51 167 0.0 3.5 0.00 0.30 0.30 85
20260506212003 51 155 0.9 3.5 0.00 0.30 0.30 85
20260506211503 51 149 0.0 1.7 0.00 0.30 0.30 86
20260506211003 51 144 0.0 1.7 0.00 0.30 0.30 86
20260506210503 51 130 0.9 1.7 0.00 0.30 0.30 86
20260506210003 51 148 0.9 1.7 0.00 0.30 0.30 86
20260506205503 51 164 0.0 1.7 0.00 0.30 0.30 86
20260506205003 51 154 0.0 1.7 0.00 0.30 0.30 87
20260506204503 51 188 0.0 0.9 0.00 0.30 0.30 87
20260506204003 52 174 0.0 1.7 0.00 0.30 0.30 87
20260506203503 52 197 0.0 1.7 0.00 0.30 0.30 87
20260506203003 52 189 0.0 1.7 0.00 0.30 0.30 88
20260506202503 52 257 0.9 1.7 0.00 0.30 0.30 88
20260506202003 52 286 0.0 1.7 0.00 0.30 0.30 88
20260506201503 52 270 0.0 1.7 0.00 0.30 0.30 88
20260506201003 52 243 0.9 1.7 0.00 0.30 0.30 88
20260506200503 52 240 0.0 1.7 0.00 0.30 0.30 88
20260506200004 52 269 0.0 1.7 0.00 0.30 0.30 88
20260506195503 52 233 0.0 0.9 0.00 0.30 0.30 88
20260506195003 53 225 0.0 0.9 0.00 0.30 0.30 88
20260506194503 53 225 0.0 0.9 0.00 0.30 0.30 87
20260506194003 52 225 0.0 0.9 0.00 0.30 0.30 87
20260506193503 53 225 0.0 0.9 0.00 0.30 0.30 87
20260506193003 52 135 0.0 0.9 0.00 0.30 0.30 87
20260506192503 52 150 0.0 0.9 0.00 0.30 0.30 86
20260506192003 52 152 0.0 0.9 0.00 0.30 0.30 86
20260506191503 52 0 0.0 0.0 0.00 0.30 0.30 86
20260506191003 52 0 0.0 0.0 0.00 0.30 0.30 86
20260506190503 52 0 0.0 0.0 0.00 0.30 0.30 85
20260506190004 52 0 0.0 0.0 0.00 0.30 0.30 85
20260506185503 52 0 0.0 0.0 0.00 0.30 0.30 85
20260506185003 52 0 0.0 0.0 0.00 0.30 0.30 84
20260506184503 52 0 0.0 0.0 0.01 0.30 0.30 84
20260506184003 52 0 0.0 0.0 0.01 0.30 0.30 84
20260506183503 53 0 0.0 0.0 0.01 0.30 0.30 84
20260506183003 53 0 0.0 0.0 0.01 0.30 0.30 84
20260506182503 53 0 0.0 0.0 0.01 0.30 0.30 84
20260506182003 53 0 0.0 0.0 0.01 0.30 0.30 83
20260506181503 53 0 0.0 0.0 0.01 0.30 0.30 83
20260506181003 53 0 0.0 0.0 0.01 0.30 0.30 83
20260506180503 53 0 0.0 0.0 0.01 0.30 0.30 82
20260506180004 53 247 0.0 0.9 0.01 0.30 0.30 82
20260506175503 53 263 0.0 0.9 0.01 0.30 0.30 82
20260506175003 53 259 0.0 0.9 0.01 0.30 0.30 82
20260506174503 53 239 0.0 0.9 0.00 0.28 0.28 82
20260506174003 53 256 0.0 0.9 0.00 0.28 0.28 82
20260506173503 53 315 0.0 0.9 0.00 0.28 0.28 81
20260506173003 53 285 0.0 0.9 0.01 0.28 0.28 81
20260506172503 53 290 0.0 0.9 0.01 0.28 0.28 81
20260506172003 53 276 0.0 1.7 0.01 0.28 0.28 80
20260506171503 53 267 0.0 1.7 0.01 0.28 0.28 80
20260506171003 53 0 0.0 0.0 0.01 0.28 0.28 80
20260506170503 54 315 0.0 0.9 0.01 0.28 0.28 79
20260506170003 54 315 0.0 0.9 0.01 0.28 0.28 79
20260506165503 54 326 0.0 0.9 0.01 0.28 0.28 79
20260506165003 54 199 0.0 1.7 0.01 0.28 0.28 79
20260506164505 54 194 0.0 1.7 0.01 0.28 0.28 78